User: anonymous   Login
Location: Slidell
(30.2789°N, 89.7378°W)
Time: 15:29:36
(UTC-05:00)
Language:

Cosmos 2360 Rocket - Orbit

View from above orbital plane
View from above orbital plane
View from above satellite
View from above satellite

Ground track
Ground track

The orbit data is extracted from the following two-line orbital elements,

1 25407U 98045B   16272.09281876 -.00000084  00000-0 -18638-4 0  9997
2 25407  71.0103 232.2072 0009964 251.5690 108.4350 14.15750961939085
Epoch (UTC): 28 September 2016 02:13:39
Eccentricity: 0.0009964
inclination: 71.0103°
perigee height: 832 km
apogee height: 847 km
right ascension of ascending node: 232.2072°
argument of perigee: 251.5690°
revolutions per day: 14.15750961
mean anomaly at epoch: 108.4350°
orbit number at epoch: 93908

The dashed part of the orbit path shows where the satellite is in the earth's shadow,  

DLR